Temperature
30 31 32 31 32 32 32 31 31 31 30 30 30 30 29 28 27 26 25 25 25 24 23 23 23 22 22 21 21 21 20 20 20 19 19 19 19 19 18 18 18 18 18 17
29 31 31 31 31 32 32 32 32 31 30 30 30 29 28 27 26 25 25 24 24 23 23 22 22 22 22 21 21 21 20 20 19 19 19 19 18 18 18 18 18 18 17 17
28 30 30 29 31 31 31 31 31 30 30 30 29 28 27 27 26 25 24 24 23 23 22 22 21 21 21 21 20 20 20 19 19 19 19 19 18 18 18 18 17 17 17 17
27 28 27 29 31 31 31 30 31 30 30 29 28 27 26 25 25 24 23 23 22 22 22 21 21 21 20 20 20 20 19 19 19 19 18 18 18 18 17 17 17 17 17 17
27 27 27 29 30 30 29 29 30 29 29 28 27 26 25 24 24 23 23 22 22 22 22 21 21 20 20 19 19 19 19 19 18 18 18 18 18 17 17 17 17 17 17 17
26 26 26 27 28 29 29 27 28 28 27 26 26 26 24 23 22 22 22 21 21 21 21 21 20 20 19 19 19 19 18 18 18 18 18 18 18 17 17 17 17 16 16 16
25 25 26 26 27 28 26 25 26 26 25 25 24 23 22 22 21 21 21 20 20 20 20 20 20 19 19 19 18 18 18 18 18 18 17 17 17 17 17 17 16 16 16 16
25 24 24 25 26 24 23 24 24 24 23 22 22 21 21 21 20 20 20 19 19 19 19 19 19 19 18 18 18 18 18 17 17 17 17 17 17 17 16 16 16 16 15 15
24 23 23 23 23 23 23 23 23 23 22 21 21 20 20 19 19 19 19 18 18 18 18 18 18 18 18 18 18 18 17 17 17 17 16 16 16 16 16 16 15 15 15 15
22 23 23 22 22 22 22 22 21 21 21 20 20 19 19 18 18 18 18 17 17 17 17 17 17 17 17 17 17 17 17 17 16 16 16 16 16 16 15 15 15 15 15 15
21 22 22 21 21 21 21 21 20 20 20 19 19 18 18 17 17 17 17 17 16 17 17 17 17 17 17 17 16 16 16 16 16 16 16 16 15 15 15 15 15 15 15 14
20 20 20 20 20 20 20 20 19 19 19 19 18 18 17 17 16 16 16 16 16 16 16 16 16 16 16 16 16 16 16 15 15 15 15 15 15 15 15 15 15 14 14 14
19 19 19 19 19 19 19 19 19 18 18 18 17 17 17 16 16 16 15 15 15 15 15 15 15 15 15 15 15 15 15 15 15 15 15 14 14 14 14 14 14 14 14 14
18 18 18 18 18 18 18 18 18 18 17 17 17 16 16 16 15 15 15 15 15 14 14 14 15 15 15 15 15 15 15 15 15 14 14 14 14 14 14 13 13 13 13 13
18 18 18 17 17 17 17 17 17 17 17 16 16 15 15 15 15 15 14 14 14 14 14 14 14 14 14 14 14 14 14 14 14 14 14 14 13 13 13 13 13 13 12 12
17 17 17 17 16 17 16 16 16 16 16 15 15 15 15 14 14 14 14 13 13 13 13 13 13 13 13 14 14 13 14 14 14 14 13 13 13 13 13 12 12 12 12 12
16 16 16 16 16 16 16 15 15 15 15 15 14 14 14 14 14 13 13 13 13 13 13 13 13 13 13 13 13 13 13 13 13 13 13 13 13 13 12 12 12 12 12 11
15 15 15 15 15 15 15 15 15 14 14 14 13 13 13 13 13 13 13 13 13 13 13 13 13 13 13 12 12 13 13 13 13 13 13 13 13 12 12 12 12 11 11 11
15 15 15 15 14 14 14 14 14 14 13 13 13 12 12 12 12 12 12 12 12 12 12 12 12 12 12 12 12 12 12 13 12 12 12 12 12 12 12 12 11 11 11 10
14 14 14 14 14 14 13 13 13 13 12 12 12 12 12 12 12 12 12 12 11 12 12 12 12 12 12 12 12 12 12 12 12 12 12 12 12 11 11 11 11 11 10 10
13 13 13 13 13 12 12 12 12 12 11 11 11 11 11 11 11 11 11 11 11 11 11 11 11 11 11 12 12 12 12 12 12 12 11 11 11 11 11 11 11 10 10 10
13 12 12 12 12 12 11 11 11 11 11 11 11 11 11 11 11 11 11 10 11 11 11 11 11 11 11 11 11 11 11 11 11 11 11 11 11 11 11 11 10 10 10 10
12 12 12 12 11 11 11 11 11 11 11 11 11 10 11 10 10 10 10 10 10 10 10 10 11 11 11 11 11 11 11 11 11 11 11 11 11 10 10 10 10 10 9 9
11 11 11 11 11 11 11 11 11 10 11 10 10 10 10 10 10 10 10 10 10 10 10 10 10 10 10 10 10 11 11 10 10 10 10 10 10 10 10 10 9 9 9 9
11 11 11 11 11 11 11 11 10 10 10 10 10 10 10 10 10 10 10 10 10 10 10 10 10 10 10 10 10 10 10 10 10 10 10 10 10 9 9 9 9 8 8 8
11 11 11 11 11 11 11 11 10 10 10 10 10 10 10 10 10 10 10 10 10 10 10 10 10 10 10 10 10 10 10 10 10 10 10 9 9 9 9 9 8 8 8 7
11 11 11 11 11 11 11 11 11 10 10 10 10 10 10 10 10 10 10 10 10 10 10 10 10 10 10 10 10 10 10 10 10 9 9 9 9 9 8 8 8 8 8 7
Wind_Speed
17 15 13 13 15 15 15 14 13 8 4 4 5 6 6 7 7 8 5 4 5 5 5 5 5 5 4 4 5 6 6 7 6 6 6 6 6 5 5 6 6 5 4 3
16 17 15 15 14 14 15 14 14 10 4 4 6 6 5 6 7 7 4 5 4 4 4 4 3 4 4 4 4 4 6 6 6 6 5 5 5 6 5 5 5 5 5 4
14 15 15 17 14 13 11 9 9 8 3 4 5 5 3 4 5 5 4 4 3 2 3 3 3 2 3 4 4 4 4 4 5 6 6 6 6 6 6 6 5 5 5 5
12 13 16 10 8 9 8 6 4 2 2 4 5 5 4 4 5 5 3 2 2 1 1 2 2 2 1 3 4 4 5 5 6 6 6 5 5 5 5 5 5 5 5 5
11 14 14 8 6 6 6 5 2 1 1 4 6 5 5 6 5 4 3 2 1 1 0 1 1 2 2 3 4 5 5 4 5 5 5 5 6 5 5 5 5 6 5 5
10 12 12 3 3 4 6 5 3 2 3 3 3 1 3 5 5 5 4 3 2 2 1 1 1 2 4 4 4 4 4 4 4 5 6 6 5 5 4 4 4 4 5 5
13 13 7 3 6 6 6 1 5 4 5 4 5 4 4 4 5 4 4 4 4 4 2 1 0 1 3 3 3 3 3 4 5 5 5 5 5 5 4 4 4 4 4 4
11 12 5 8 5 5 5 6 6 5 6 7 6 5 4 5 5 5 4 5 5 4 4 2 1 1 2 3 2 2 3 4 4 5 5 5 5 5 5 5 5 5 5 5
2 0 5 8 7 6 5 6 6 5 6 5 4 3 4 5 5 5 5 5 5 4 4 3 2 1 2 2 2 3 3 4 4 4 4 5 6 6 5 5 6 6 6 6
3 2 4 5 5 5 6 5 6 5 4 4 4 4 4 4 4 4 4 4 4 4 4 4 3 2 2 1 2 3 3 3 3 4 4 4 4 5 5 5 5 5 5 4
4 3 3 4 6 6 5 4 4 5 4 3 3 3 3 3 3 3 3 3 4 4 3 4 4 2 2 2 2 3 3 3 3 4 4 4 3 2 3 2 2 3 2 2
4 4 4 4 5 7 6 4 4 4 4 4 3 3 3 2 3 3 3 3 3 4 5 5 5 3 3 2 2 2 3 3 3 3 3 4 4 2 4 3 5 6 4 3
4 5 6 5 5 6 7 6 5 4 4 3 3 3 3 3 3 3 4 3 4 4 4 4 4 3 3 2 1 2 3 3 3 3 3 4 4 4 3 2 4 4 4 4
3 4 7 6 6 6 6 6 5 5 4 4 3 3 4 4 4 4 4 4 4 4 4 5 4 3 3 2 1 2 3 3 3 3 4 4 4 4 5 5 4 2 3 6
5 6 7 7 7 5 5 5 5 4 4 4 4 3 4 4 4 4 4 4 4 4 5 5 4 4 3 2 2 2 2 2 1 1 2 2 3 4 4 5 4 4 5 4
6 6 6 7 7 6 6 6 6 5 4 5 5 5 5 5 4 4 4 4 4 5 4 4 4 4 3 2 2 2 2 1 1 1 2 2 2 3 3 4 4 3 4 5
6 6 7 7 7 6 5 6 5 5 5 5 6 6 6 6 5 4 4 4 4 4 4 3 4 3 3 2 2 2 1 0 0 1 1 1 1 1 3 4 3 3 3 5
6 7 7 7 6 6 6 6 5 5 5 5 5 6 6 6 5 4 4 4 4 4 3 3 2 2 2 2 2 2 1 1 1 0 0 0 0 1 1 2 3 3 3 4
7 7 6 6 6 6 6 6 5 3 4 4 4 5 5 5 5 4 3 3 3 4 3 3 2 2 2 1 1 1 1 1 2 1 1 2 2 1 1 2 2 2 3 4
5 5 5 5 5 5 5 5 4 4 4 4 5 5 5 5 4 3 2 2 2 3 3 3 2 1 1 2 2 1 0 1 2 2 2 1 2 2 2 3 3 2 1 2
4 4 4 3 3 3 3 4 3 3 4 4 4 4 3 3 2 2 2 2 3 4 4 2 1 2 2 2 2 1 1 2 2 2 2 1 2 2 2 3 3 3 3 2
3 3 3 2 2 2 3 3 3 3 3 3 3 3 2 1 1 2 2 2 3 4 3 2 3 4 4 3 2 2 2 2 2 2 2 2 2 3 2 2 2 2 3 3
2 2 2 2 2 2 3 3 2 2 2 2 2 2 2 1 1 1 1 2 2 2 2 3 5 6 5 3 2 3 4 3 2 3 3 3 3 3 3 3 3 3 3 2
2 2 2 1 1 1 1 1 2 2 1 1 2 2 2 1 2 2 2 3 3 2 2 3 4 4 3 1 3 3 4 3 3 3 3 3 4 3 3 3 3 3 2 2
2 2 1 1 1 1 1 2 2 2 2 2 3 3 2 2 3 3 3 3 3 3 3 3 1 2 2 2 3 3 3 3 3 3 3 3 3 3 3 3 3 2 2 2
1 0 0 0 1 1 1 2 2 2 1 2 2 2 3 3 3 3 3 3 4 3 3 2 2 2 2 2 2 3 4 3 3 3 4 4 4 3 3 3 3 2 2 2
0 0 1 0 2 2 2 2 3 2 2 2 3 4 3 3 4 4 4 4 3 3 3 2 2 3 3 3 4 4 4 4 4 4 4 4 3 3 3 3 3 3 2 3
Wind_Direction
261 263 263 250 239 241 244 255 264 265 221 170 134 130 123 123 118 115 112 100 91 106 116 122 121 132 147 162 162 166 168 175 174 179 179 179 182 178 179 181 180 167 165 161
260 258 259 262 249 241 244 248 252 254 232 126 98 102 115 121 114 106 101 90 82 86 104 117 125 148 153 155 154 158 172 181 172 172 174 174 174 174 177 182 174 165 167 171
260 256 257 252 253 248 247 255 261 260 200 123 105 100 87 98 114 107 96 86 79 68 100 119 131 143 168 162 161 166 175 177 166 170 179 175 183 180 178 181 179 176 174 176
257 259 253 254 266 260 251 250 263 235 149 118 106 96 72 73 90 91 86 88 70 50 87 119 137 142 198 183 169 180 187 186 178 177 181 174 178 186 186 182 184 183 183 181
254 252 248 237 249 264 261 256 295 292 55 99 112 108 91 67 63 75 54 46 35 336 324 92 138 148 172 204 193 196 197 193 183 177 183 180 184 190 190 189 189 185 183 183
251 257 261 261 302 293 272 232 22 39 57 54 68 156 81 48 35 46 36 22 358 340 0 51 84 159 186 207 201 205 201 193 182 180 188 190 188 188 188 189 191 189 185 178
245 252 255 358 334 284 250 331 22 42 59 58 36 27 51 35 40 43 34 14 3 354 353 12 56 221 201 202 206 201 195 191 186 185 192 188 180 183 182 184 180 186 181 180
244 251 256 12 16 17 40 33 37 45 56 62 54 50 40 31 29 32 25 14 6 5 359 353 326 249 223 209 198 186 191 184 185 185 199 194 181 185 187 184 183 193 196 192
315 10 66 47 54 36 33 32 31 42 49 55 50 41 31 26 19 18 18 11 1 355 352 354 346 307 259 223 195 197 196 193 191 191 191 186 185 193 197 198 201 198 199 200
329 60 50 44 44 25 17 18 19 28 34 40 24 20 19 13 10 4 2 359 355 355 354 351 346 335 313 252 210 207 210 207 198 187 191 187 185 195 199 204 209 202 196 194
278 302 330 12 7 359 1 359 7 11 19 25 4 356 360 359 355 347 345 350 351 346 345 341 340 345 336 308 232 217 216 207 205 199 187 165 171 186 191 186 204 203 203 193
291 351 332 332 347 336 334 349 360 355 349 353 344 328 331 335 342 340 336 343 347 344 340 337 337 338 335 314 234 217 221 214 213 203 181 172 162 129 61 102 95 91 103 126
332 332 315 304 320 315 314 327 331 325 323 326 331 324 319 322 330 332 327 331 332 331 331 327 329 333 332 325 257 228 229 224 224 210 194 190 180 173 164 100 81 95 129 137
332 315 295 300 302 304 310 317 316 319 323 328 331 331 319 315 316 318 316 317 320 327 323 317 324 338 340 332 301 270 258 242 221 203 194 199 202 199 192 185 171 160 157 153
304 297 294 297 297 293 295 295 292 297 307 315 320 315 307 306 307 312 311 305 307 308 310 312 320 323 313 300 291 285 282 278 255 225 211 201 210 212 203 192 173 164 147 135
294 292 292 290 288 287 287 291 295 301 310 314 314 309 304 301 301 299 297 295 294 298 304 312 310 306 303 300 290 282 268 278 252 233 216 210 222 215 198 179 167 169 156 143
281 279 280 282 284 288 295 296 292 299 302 305 307 305 303 299 294 289 289 296 295 287 288 288 289 297 308 310 302 291 286 155 187 240 233 219 220 195 166 160 162 164 149 143
280 278 282 286 284 283 284 286 286 288 292 299 305 307 304 298 293 295 300 302 302 300 301 303 311 315 304 300 293 279 245 172 183 246 75 80 81 105 128 140 142 138 127 133
284 282 281 282 285 285 288 287 288 299 303 308 310 303 300 298 300 302 309 308 307 312 328 342 333 304 305 323 319 283 227 170 153 128 100 106 119 125 129 118 114 132 148 144
301 306 302 300 303 306 308 306 309 318 318 315 306 300 297 294 302 315 336 333 349 355 359 7 350 340 352 24 357 317 99 125 119 108 97 115 131 136 142 127 120 114 102 130
310 309 303 303 318 326 318 311 311 306 306 304 297 297 301 310 327 357 359 11 24 13 9 31 31 30 28 14 345 344 79 87 94 101 112 120 123 115 103 98 106 115 116 110
322 318 311 321 343 350 346 328 311 303 304 299 305 311 320 331 6 42 49 33 26 27 18 33 41 40 24 15 19 28 51 63 67 88 101 98 98 94 93 96 94 88 96 100
323 323 323 333 346 355 349 334 322 319 319 334 354 4 5 9 28 70 64 36 27 17 23 42 32 27 14 18 30 54 58 66 75 77 78 86 94 95 92 91 88 86 88 87
328 333 336 337 335 344 346 358 14 20 44 61 76 76 65 74 68 69 76 89 64 42 47 57 43 19 2 39 54 61 65 58 59 75 79 76 77 83 86 86 88 87 87 89
325 340 5 342 332 6 45 62 67 64 73 92 94 89 83 84 78 66 66 72 84 82 72 76 50 25 40 42 60 65 67 60 55 61 71 74 75 78 81 85 83 80 79 79
321 312 123 279 13 5 51 81 81 80 78 83 91 90 80 79 82 86 94 99 95 91 78 79 81 87 71 56 61 65 71 81 78 77 74 69 66 61 63 64 78 85 88 87
321 108 150 64 59 61 68 82 86 86 83 81 77 73 75 76 79 78 76 82 87 85 84 80 71 61 55 57 66 70 75 74 68 69 73 69 63 59 67 70 69 70 70 80
Height
1458 1452 1452 1454 1455 1455 1459 1462 1468 1467 1468 1469 1469 1472 1476 1479 1483 1486 1489 1490 1492 1494 1495 1497 1499 1501 1503 1506 1507 1508 1509 1510 1511 1513 1514 1516 1518 1520 1521 1522 1523 1525 1526 1526
1463 1453 1452 1455 1451 1452 1455 1455 1458 1462 1467 1464 1469 1474 1477 1480 1483 1486 1489 1491 1493 1494 1495 1497 1498 1500 1501 1504 1505 1506 1507 1508 1509 1511 1512 1514 1515 1517 1518 1520 1521 1522 1523 1524
1470 1457 1456 1464 1454 1452 1454 1454 1457 1464 1466 1466 1471 1476 1479 1480 1483 1486 1489 1492 1493 1495 1495 1496 1498 1499 1500 1502 1503 1505 1506 1507 1507 1508 1510 1511 1513 1513 1514 1516 1518 1519 1520 1521
1470 1469 1481 1460 1447 1448 1452 1455 1456 1460 1464 1467 1473 1478 1481 1483 1485 1487 1490 1491 1493 1495 1495 1496 1497 1498 1500 1501 1502 1503 1503 1505 1505 1506 1507 1508 1510 1511 1512 1513 1515 1516 1516 1518
1472 1473 1469 1457 1453 1451 1456 1460 1458 1462 1465 1469 1474 1478 1482 1485 1486 1488 1490 1491 1493 1494 1495 1495 1496 1496 1498 1499 1500 1500 1501 1502 1503 1504 1505 1505 1507 1508 1510 1511 1512 1512 1513 1514
1472 1478 1479 1466 1455 1455 1459 1467 1464 1466 1470 1474 1475 1479 1485 1487 1487 1488 1490 1491 1491 1493 1493 1494 1494 1495 1495 1496 1496 1497 1498 1499 1500 1501 1502 1502 1504 1505 1506 1508 1509 1509 1509 1510
1474 1475 1469 1463 1460 1459 1473 1478 1470 1471 1474 1477 1480 1484 1487 1487 1487 1489 1489 1490 1490 1491 1492 1492 1492 1492 1492 1493 1493 1494 1495 1496 1497 1498 1499 1500 1501 1502 1503 1504 1505 1506 1506 1507
1471 1477 1479 1468 1466 1472 1477 1476 1475 1476 1478 1480 1483 1485 1487 1488 1488 1489 1489 1489 1489 1489 1489 1490 1489 1489 1489 1489 1490 1491 1491 1492 1493 1494 1496 1497 1498 1499 1500 1501 1502 1503 1504 1504
1472 1477 1476 1474 1475 1478 1478 1479 1479 1480 1481 1483 1485 1486 1487 1488 1489 1489 1489 1489 1488 1488 1487 1487 1487 1487 1487 1487 1487 1488 1488 1489 1489 1490 1492 1494 1495 1496 1497 1498 1498 1499 1500 1501
1474 1474 1475 1477 1479 1481 1481 1481 1482 1482 1483 1484 1486 1487 1488 1489 1489 1489 1489 1488 1487 1486 1486 1485 1485 1484 1484 1484 1484 1485 1485 1486 1487 1488 1489 1490 1491 1492 1493 1494 1495 1496 1497 1498
1476 1478 1479 1480 1481 1482 1483 1483 1483 1484 1484 1485 1486 1488 1488 1488 1488 1488 1488 1487 1486 1485 1484 1483 1483 1482 1481 1481 1481 1481 1482 1483 1484 1485 1485 1486 1487 1488 1489 1490 1491 1493 1493 1494
1480 1481 1482 1484 1484 1484 1484 1484 1484 1485 1485 1486 1487 1487 1487 1487 1487 1486 1486 1485 1484 1483 1483 1482 1480 1479 1479 1478 1478 1478 1479 1480 1481 1482 1482 1483 1484 1485 1485 1487 1487 1488 1489 1491
1481 1482 1483 1483 1484 1485 1485 1484 1484 1485 1485 1485 1486 1486 1486 1485 1485 1485 1484 1483 1482 1482 1481 1480 1478 1477 1476 1476 1475 1476 1476 1476 1477 1478 1479 1480 1481 1482 1482 1483 1483 1483 1484 1486
1481 1483 1483 1483 1483 1484 1484 1484 1484 1484 1484 1484 1484 1484 1484 1484 1483 1482 1481 1481 1480 1480 1479 1478 1476 1475 1474 1473 1473 1473 1473 1474 1475 1475 1476 1477 1478 1478 1479 1479 1479 1479 1480 1482
1482 1483 1483 1483 1483 1483 1483 1483 1483 1483 1483 1483 1483 1482 1482 1482 1481 1480 1479 1478 1477 1477 1476 1475 1474 1473 1472 1471 1471 1471 1471 1472 1472 1473 1474 1474 1474 1474 1474 1474 1475 1476 1477 1478
1481 1481 1482 1482 1481 1481 1482 1481 1481 1480 1481 1481 1481 1480 1480 1479 1478 1477 1476 1476 1475 1474 1474 1473 1472 1471 1470 1469 1469 1469 1469 1469 1470 1471 1471 1472 1471 1470 1469 1470 1471 1473 1474 1476
1479 1479 1479 1479 1479 1479 1479 1479 1479 1478 1479 1479 1479 1478 1477 1476 1475 1474 1474 1473 1473 1472 1471 1471 1470 1469 1468 1467 1467 1467 1467 1467 1468 1469 1470 1470 1470 1469 1468 1469 1470 1472 1473 1474
1477 1477 1477 1477 1476 1476 1476 1477 1476 1476 1477 1476 1476 1475 1474 1473 1472 1471 1471 1470 1470 1469 1468 1467 1467 1466 1466 1465 1465 1466 1465 1465 1466 1467 1468 1469 1469 1469 1469 1469 1470 1471 1472 1473
1474 1474 1474 1474 1474 1474 1474 1474 1474 1473 1474 1473 1473 1472 1471 1470 1469 1469 1468 1468 1467 1466 1465 1465 1464 1464 1463 1463 1463 1464 1464 1464 1465 1466 1466 1467 1468 1469 1469 1469 1470 1472 1473 1473
1472 1471 1471 1471 1471 1471 1471 1471 1470 1471 1471 1470 1470 1469 1468 1467 1467 1466 1466 1466 1465 1464 1463 1462 1462 1462 1462 1462 1462 1463 1463 1464 1464 1465 1465 1466 1467 1469 1469 1469 1471 1472 1472 1472
1471 1470 1469 1468 1469 1469 1469 1469 1468 1468 1468 1468 1467 1465 1465 1465 1464 1464 1464 1464 1463 1463 1462 1461 1461 1461 1461 1461 1462 1462 1462 1463 1463 1464 1465 1466 1467 1468 1468 1469 1470 1471 1471 1471
1469 1469 1468 1467 1467 1467 1467 1467 1466 1466 1465 1465 1464 1463 1462 1462 1463 1463 1463 1463 1462 1461 1461 1461 1460 1460 1461 1461 1461 1462 1462 1463 1464 1464 1465 1466 1467 1467 1468 1469 1470 1470 1471 1471
1469 1468 1468 1467 1467 1466 1466 1465 1464 1464 1463 1462 1462 1462 1462 1462 1462 1462 1462 1463 1462 1462 1461 1461 1461 1460 1461 1462 1462 1463 1463 1463 1464 1465 1465 1466 1466 1467 1468 1469 1470 1470 1470 1470
1468 1468 1468 1467 1467 1466 1465 1464 1463 1463 1462 1462 1462 1462 1462 1462 1463 1463 1463 1463 1463 1463 1462 1462 1461 1462 1462 1463 1463 1464 1464 1465 1465 1466 1466 1466 1467 1467 1468 1469 1469 1469 1470 1470
1468 1468 1468 1467 1467 1466 1465 1464 1463 1463 1463 1463 1463 1463 1463 1464 1464 1464 1464 1464 1464 1463 1463 1463 1463 1464 1464 1464 1465 1465 1465 1466 1467 1467 1467 1467 1468 1468 1469 1469 1469 1469 1470 1470
1467 1467 1467 1467 1467 1466 1465 1464 1463 1463 1464 1465 1465 1465 1465 1465 1465 1465 1465 1465 1465 1465 1465 1465 1465 1466 1466 1466 1467 1467 1468 1468 1468 1468 1468 1469 1469 1469 1469 1469 1469 1469 1469 1469
1468 1468 1467 1467 1467 1467 1466 1466 1465 1466 1466 1466 1466 1466 1466 1467 1467 1467 1467 1467 1467 1467 1468 1468 1468 1468 1468 1469 1469 1469 1469 1469 1470 1470 1470 1470 1470 1470 1470 1470 1469 1469 1469 1469